Vorticity
7 8 8 10 11 11 13 13 14 14 14 13 14 13 11 12 13 12 12 12 11 9 9 7 9 5 7 -22 6 8 4 16 -2 9 2 5 8 8 2 8 9 11 5 10 11 10 7
7 8 9 11 10 13 12 12 15 13 14 14 14 13 12 12 13 13 12 12 9 8 7 9 9 2 -1 2 24 2 1 -9 10 10 6 5 6 11 5 5 -1 7 8 5 4 3 16
9 9 10 10 11 12 11 13 14 15 15 14 14 13 13 13 12 12 11 9 7 7 10 11 7 4 -18 11 8 7 -1 5 7 -3 13 8 7 -2 13 11 7 8 2 4 9 5 0
9 10 11 11 10 11 11 14 13 14 14 14 13 12 13 14 14 11 8 6 7 10 10 8 8 7 2 -5 17 8 5 5 2 13 12 12 14 13 3 2 10 4 5 0 9 12 9
9 10 10 10 8 10 12 13 13 13 13 14 14 15 15 12 9 6 6 8 9 10 10 7 6 3 8 12 15 15 13 8 16 8 4 6 3 11 6 7 3 9 5 5 4 3 3
9 9 11 9 8 11 11 11 11 14 14 13 13 12 9 8 5 5 7 9 11 11 11 10 14 -8 16 14 17 16 13 9 1 7 4 -1 2 5 10 5 9 20 10 12 5 4 13
9 9 9 8 9 10 9 9 9 10 10 10 9 6 7 6 5 5 6 12 3 6 -24 8 12 15 12 15 12 11 9 9 -0 1 -2 7 15 15 7 5 6 10 9 10 7 1 19
9 8 8 9 8 10 8 7 8 9 8 7 6 6 8 4 3 6 2 -4 5 12 17 23 17 13 11 11 10 19 -2 -4 4 0 5 11 8 8 11 11 8 9 10 10 10 3 10
8 8 7 9 8 8 7 7 7 8 8 7 7 10 9 1 5 5 7 9 14 3 10 10 9 15 8 10 5 18 -9 11 13 8 13 24 9 8 2 3 13 7 13 4 4 1 13
8 8 7 8 9 8 8 7 7 6 6 7 8 8 6 2 4 4 5 10 9 -1 2 7 2 10 3 5 13 12 13 -1 8 11 7 4 12 1 8 2 6 16 -7 6 11 10 22
7 7 7 9 10 9 9 8 7 7 6 7 9 10 9 7 21 -10 13 4 -19 -7 4 5 15 17 9 -1 8 15 11 12 14 14 0 5 6 6 9 5 9 4 15 15 16 17 6
6 7 6 9 11 11 10 9 8 8 8 8 8 8 8 8 3 8 6 5 -14 4 15 6 11 4 9 16 19 15 10 11 -0 11 24 8 9 6 7 10 16 8 9 10 12 12 12
6 7 6 8 9 12 12 10 10 9 9 9 8 7 5 7 14 6 3 5 -3 1 21 16 9 11 12 10 4 18 17 9 13 -3 3 4 9 7 6 26 3 18 18 20 8 6 12
6 8 6 8 9 11 13 11 13 13 10 9 9 8 7 7 11 6 8 1 7 19 -7 11 12 1 3 -4 11 10 1 -5 23 16 7 10 4 20 11 9 5 7 4 15 11 11 -11
5 8 6 7 9 11 11 12 13 12 12 10 10 10 11 8 13 6 -16 5 23 15 16 8 2 -2 3 13 11 -6 7 8 9 5 24 15 3 3 6 5 8 2 9 8 5 4 13
5 7 7 7 9 11 10 9 14 14 12 11 11 10 12 5 11 7 1 -3 9 -0 6 13 -7 8 12 7 3 8 10 7 2 6 4 16 4 5 6 16 1 13 9 11 0 9 13
5 7 7 6 8 11 10 7 12 15 14 12 11 -2 18 15 14 -11 3 6 16 13 -13 8 8 14 15 1 16 5 14 8 6 8 7 12 12 6 11 3 6 3 6 9 11 7 7
5 6 7 5 7 10 11 6 8 13 13 9 5 8 16 9 -12 4 4 18 10 15 7 -8 3 16 7 9 8 4 11 15 2 6 9 14 9 8 5 -1 10 8 11 9 11 5 0
4 5 7 5 5 9 12 10 4 8 12 11 -9 41 6 6 16 -7 8 21 -2 2 -1 6 15 0 4 5 6 7 4 4 8 6 7 11 6 13 16 4 10 14 9 7 7 14 18
4 5 6 6 4 7 10 13 7 5 6 3 1 9 11 6 5 17 11 18 9 2 8 5 10 10 12 14 4 14 7 9 7 9 6 10 7 4 -4 -6 2 5 5 5 8 3 -7
4 5 6 6 4 4 8 13 13 7 6 4 -15 18 11 27 -6 13 6 20 12 13 5 9 16 9 4 5 6 9 6 11 11 7 12 7 11 3 5 10 11 14 14 12 11 6 11
3 5 6 6 5 5 5 8 13 10 9 6 18 8 11 17 6 9 6 14 10 1 21 21 18 10 3 19 7 13 9 6 6 11 4 6 6 6 7 11 8 5 10 17 14 17 8
4 3 4 6 6 5 5 4 8 8 9 9 9 12 15 -1 15 6 9 9 8 11 10 14 13 9 7 -4 1 -1 3 3 0 5 6 11 6 8 7 -7 16 51 9 13 -7 8 10
5 3 3 3 6 7 5 6 5 7 5 8 12 8 16 11 17 6 11 6 11 1 21 -2 5 10 7 9 5 8 10 11 10 14 -0 5 8 14 -3 32 14 -5 -15 13 13 11 23
7 5 4 4 4 5 6 8 6 7 8 9 8 8 13 13 8 1 8 17 2 8 11 13 2 11 10 5 9 11 8 15 11 3 20 9 4 11 6 -5 -7 59 10 -7 1 12 17
5 7 5 6 6 7 8 5 9 8 8 9 12 9 9 7 12 14 7 9 12 4 4 11 7 9 8 5 7 12 7 3 11 8 13 5 6 11 8 11 6 -6 -3 -9 27 18 -1
6 4 5 3 4 4 5 7 9 8 8 8 9 12 12 8 14 5 9 -0 -3 8 24 8 7 7 6 6 5 9 9 2 8 7 8 8 5 12 14 -3 8 8 13 33 11 -12 -8
9 7 5 3 2 3 5 7 9 10 8 8 8 8 10 13 10 15 5 10 13 6 3 7 10 6 5 9 5 9 11 6 7 -3 5 9 14 6 24 9 19 4 8 -1 -12 2 -4
16 11 8 8 6 5 6 7 9 10 10 10 9 7 8 8 11 6 14 13 9 1 -6 7 0 -0 12 9 11 12 8 -8 2 1 15 12 2 -0 -13 -23 -22 -9 -12 9 18 -8 -7
Height
3110 3110 3108 3107 3104 3101 3099 3097 3096 3095 3094 3095 3096 3098 3100 3102 3104 3107 3110 3113 3117 3120 3124 3127 3130 3133 3137 3141 3143 3142 3143 3144 3147 3148 3150 3153 3154 3154 3153 3153 3155 3158 3159 3160 3160 3159 3160
3106 3106 3105 3104 3100 3099 3096 3095 3094 3093 3093 3094 3095 3097 3099 3101 3104 3107 3111 3115 3119 3122 3125 3128 3132 3134 3140 3144 3141 3142 3144 3146 3148 3151 3151 3152 3153 3153 3154 3154 3158 3160 3160 3161 3160 3160 3159
3103 3103 3103 3100 3098 3097 3095 3093 3093 3092 3093 3094 3095 3097 3099 3102 3105 3109 3113 3118 3122 3124 3128 3131 3133 3137 3141 3143 3141 3143 3145 3145 3146 3147 3150 3148 3151 3153 3154 3156 3159 3160 3161 3160 3159 3159 3162
3100 3100 3101 3098 3097 3096 3094 3092 3093 3093 3094 3095 3096 3098 3101 3104 3108 3113 3117 3121 3124 3127 3129 3132 3135 3139 3142 3140 3141 3143 3144 3146 3147 3147 3148 3149 3150 3153 3157 3157 3159 3160 3160 3159 3160 3160 3161
3098 3098 3099 3097 3096 3095 3094 3094 3094 3095 3095 3096 3098 3101 3105 3108 3112 3116 3120 3123 3126 3129 3131 3134 3138 3141 3143 3140 3141 3142 3143 3146 3147 3148 3150 3151 3153 3156 3156 3158 3159 3158 3154 3157 3159 3159 3160
3095 3097 3097 3096 3096 3096 3095 3096 3097 3098 3099 3100 3102 3105 3108 3111 3115 3119 3122 3125 3128 3131 3134 3137 3139 3143 3141 3142 3141 3142 3144 3146 3148 3150 3152 3153 3155 3155 3156 3156 3152 3151 3154 3156 3156 3158 3158
3094 3096 3095 3095 3096 3097 3097 3098 3099 3101 3102 3103 3105 3108 3111 3115 3118 3122 3125 3128 3135 3137 3137 3140 3142 3140 3141 3141 3141 3143 3145 3147 3149 3153 3155 3154 3155 3154 3154 3155 3154 3154 3156 3155 3156 3155 3154
3092 3094 3094 3095 3097 3098 3099 3100 3102 3104 3105 3106 3108 3111 3115 3118 3121 3124 3128 3131 3135 3138 3139 3139 3140 3141 3141 3142 3146 3145 3147 3151 3152 3154 3154 3155 3155 3155 3155 3155 3155 3156 3155 3154 3154 3152 3152
3091 3093 3093 3095 3097 3098 3100 3102 3104 3105 3107 3109 3111 3114 3117 3120 3123 3127 3129 3132 3135 3137 3142 3142 3141 3143 3143 3145 3145 3144 3147 3149 3152 3153 3154 3153 3154 3153 3154 3155 3154 3153 3153 3153 3154 3153 3153
3090 3091 3092 3094 3096 3098 3100 3102 3104 3106 3109 3111 3113 3116 3119 3122 3128 3129 3131 3133 3137 3139 3144 3147 3146 3146 3145 3144 3146 3145 3146 3149 3150 3153 3153 3153 3152 3153 3154 3153 3152 3154 3152 3152 3153 3153 3149
3089 3091 3092 3093 3096 3098 3100 3102 3105 3107 3110 3112 3115 3117 3120 3124 3126 3131 3133 3134 3138 3140 3141 3147 3145 3144 3144 3146 3147 3147 3147 3149 3152 3151 3153 3154 3153 3154 3154 3153 3152 3153 3151 3151 3151 3150 3149
3088 3089 3090 3092 3095 3097 3099 3102 3104 3107 3110 3113 3115 3118 3120 3124 3127 3129 3133 3136 3140 3144 3143 3145 3145 3147 3147 3146 3146 3147 3148 3149 3150 3153 3152 3152 3152 3153 3153 3152 3151 3150 3151 3150 3149 3148 3147
3086 3088 3089 3091 3094 3096 3098 3100 3103 3106 3109 3112 3115 3118 3121 3123 3127 3130 3134 3138 3145 3143 3144 3146 3146 3147 3148 3149 3148 3150 3150 3150 3153 3154 3153 3154 3154 3153 3152 3153 3152 3152 3151 3146 3146 3146 3144
3084 3087 3088 3090 3093 3094 3097 3099 3103 3105 3109 3112 3115 3117 3120 3124 3127 3131 3135 3142 3142 3142 3143 3144 3146 3148 3150 3150 3150 3150 3152 3152 3150 3152 3153 3152 3155 3154 3152 3153 3153 3152 3151 3150 3148 3144 3144
3082 3086 3087 3089 3092 3094 3096 3099 3102 3105 3108 3111 3115 3117 3120 3124 3128 3131 3137 3141 3140 3142 3143 3144 3147 3148 3149 3149 3151 3151 3151 3151 3150 3150 3154 3153 3154 3152 3152 3152 3153 3152 3153 3152 3152 3151 3150
3081 3085 3087 3090 3092 3094 3097 3099 3102 3105 3108 3111 3114 3118 3121 3124 3128 3132 3137 3139 3139 3138 3141 3145 3146 3147 3148 3149 3151 3152 3152 3151 3152 3151 3151 3153 3154 3152 3152 3152 3152 3152 3153 3153 3152 3153 3148
3079 3083 3087 3089 3092 3095 3097 3100 3102 3105 3109 3112 3115 3119 3121 3124 3128 3133 3137 3138 3136 3137 3140 3145 3146 3146 3148 3148 3150 3151 3152 3152 3151 3151 3151 3151 3154 3156 3153 3154 3154 3154 3153 3154 3154 3154 3151
3078 3082 3086 3089 3092 3095 3098 3100 3103 3106 3109 3114 3116 3122 3121 3125 3132 3133 3136 3135 3136 3138 3140 3142 3144 3146 3147 3148 3149 3150 3152 3151 3151 3151 3153 3151 3153 3154 3155 3151 3151 3152 3153 3154 3154 3154 3153
3077 3081 3085 3088 3092 3095 3098 3101 3103 3107 3110 3114 3119 3119 3122 3125 3130 3131 3132 3134 3136 3138 3140 3142 3142 3144 3145 3147 3149 3149 3149 3150 3150 3151 3151 3152 3154 3153 3151 3152 3152 3152 3152 3152 3152 3151 3149
3074 3080 3084 3088 3092 3095 3098 3101 3104 3107 3111 3115 3119 3120 3123 3125 3127 3131 3132 3134 3135 3136 3139 3140 3142 3144 3145 3146 3147 3148 3148 3149 3149 3149 3150 3151 3153 3154 3154 3154 3153 3151 3150 3149 3149 3148 3145
3073 3079 3083 3087 3091 3095 3098 3101 3104 3107 3110 3115 3117 3120 3121 3123 3126 3129 3132 3133 3134 3136 3138 3140 3142 3144 3145 3146 3147 3148 3149 3148 3148 3148 3149 3151 3152 3152 3150 3150 3149 3147 3145 3144 3142 3142 3141
3071 3077 3081 3086 3090 3094 3098 3100 3104 3106 3110 3113 3116 3118 3120 3122 3125 3128 3129 3132 3134 3134 3137 3139 3142 3143 3145 3145 3147 3147 3148 3148 3149 3148 3149 3149 3150 3148 3146 3146 3144 3141 3138 3137 3137 3137 3135
3068 3074 3079 3084 3088 3093 3097 3100 3103 3106 3109 3111 3114 3117 3119 3121 3123 3126 3127 3130 3133 3133 3136 3138 3140 3142 3143 3144 3143 3144 3144 3145 3146 3148 3147 3148 3147 3146 3144 3142 3138 3134 3133 3134 3135 3134 3133
3066 3072 3077 3082 3087 3091 3095 3099 3102 3105 3107 3110 3113 3116 3117 3119 3121 3124 3125 3128 3131 3133 3134 3136 3139 3139 3141 3142 3143 3143 3143 3144 3144 3145 3145 3145 3145 3145 3143 3141 3138 3134 3133 3131 3131 3131 3129
3063 3069 3074 3079 3084 3089 3093 3097 3100 3103 3106 3109 3111 3114 3116 3117 3120 3121 3124 3127 3128 3131 3133 3134 3135 3138 3139 3141 3142 3142 3142 3143 3142 3143 3143 3143 3143 3143 3143 3142 3136 3131 3128 3128 3126 3125 3125
3060 3067 3072 3077 3082 3087 3091 3095 3098 3101 3104 3107 3109 3112 3114 3116 3118 3120 3123 3125 3127 3129 3130 3132 3134 3135 3137 3138 3140 3140 3141 3141 3143 3141 3140 3141 3141 3143 3140 3141 3135 3129 3128 3123 3122 3122 3117
3056 3063 3069 3074 3079 3084 3088 3092 3096 3099 3102 3105 3107 3109 3112 3114 3115 3118 3121 3123 3125 3127 3129 3130 3131 3133 3135 3136 3137 3138 3139 3139 3140 3139 3137 3138 3137 3137 3136 3135 3130 3126 3121 3120 3122 3122 3114
3053 3059 3065 3070 3076 3081 3085 3089 3093 3097 3099 3102 3105 3107 3110 3111 3113 3115 3118 3120 3122 3125 3126 3127 3130 3129 3131 3133 3134 3134 3134 3135 3135 3136 3135 3135 3134 3132 3132 3130 3125 3120 3119 3119 3117 3111 3106
3049 3055 3061 3066 3072 3077 3082 3086 3089 3093 3097 3100 3103 3105 3107 3109 3112 3113 3115 3117 3119 3121 3123 3124 3126 3126 3127 3128 3130 3130 3130 3130 3130 3132 3132 3132 3129 3130 3128 3124 3123 3118 3113 3109 3105 3104 3100